Location: Grand Rapids
(42.9630°N, 85.6680°W)
Time: 01:38:39
(UTC-04:00)

S-56A Canister/Altair - Pass Details

Date: 30 May 2024
Orbit: 637 x 2489 km, 38.9° (Epoch: 21 June)

Event Time Altitude Azimuth Distance (km) Brightness Sun altitude
Rises 10:45:02 0° 282° (WNW) 5,603 11.5 48.1°
Reaches altitude 10° 10:49:21 10° 277° (W) 4,335 11.1 48.8°
Maximum altitude 10:59:22 40° 213° (SSW) 2,010 10.0 50.6°
Drops below altitude 10° 11:06:15 10° 146° (SE) 2,979 11.2 51.8°
Sets 11:08:42 0° 138° (SE) 3,725 11.6 52.2°
